ASL33K LWSK-LYBE

Flight info

Callsign ASL33K
Flight time 0h 48m
Altitude 20000
Route RAXAD L617 VAGEN Y575 GAZON
Aircraft E195/M-SDE3GILORVW/S

Departure

Time 2026-04-28 13:09
Airport Skopje International Airport (LWSK)

Arrival

Time 2026-04-28 13:57
Airport Belgrade Nikola Tesla Airport (LYBE)
Time Latitude Longitude Altitude Speed Heading
2026-04-28 13:01 41.96074 21.62587 782 ft 0 kts 73°
2026-04-28 13:01 41.96073 21.62581 782 ft 3 kts 73°
2026-04-28 13:02 41.96067 21.62547 782 ft 4 kts 96°
2026-04-28 13:02 41.96074 21.62525 782 ft 2 kts 165°
2026-04-28 13:02 41.96079 21.62523 782 ft 0 kts 165°
2026-04-28 13:04 41.96073 21.62525 782 ft 2 kts 165°
2026-04-28 13:04 41.96048 21.62530 782 ft 4 kts 182°
2026-04-28 13:04 41.96020 21.62502 782 ft 6 kts 223°
2026-04-28 13:05 41.95974 21.62482 782 ft 8 kts 174°
2026-04-28 13:05 41.95921 21.62498 781 ft 7 kts 165°
2026-04-28 13:05 41.95864 21.62518 781 ft 10 kts 166°
2026-04-28 13:05 41.95788 21.62543 780 ft 13 kts 166°
2026-04-28 13:06 41.95693 21.62575 780 ft 16 kts 166°
2026-04-28 13:06 41.95585 21.62616 779 ft 16 kts 164°
2026-04-28 13:06 41.95479 21.62655 778 ft 17 kts 164°
2026-04-28 13:06 41.95361 21.62693 778 ft 18 kts 166°
2026-04-28 13:07 41.95229 21.62738 777 ft 21 kts 165°
2026-04-28 13:07 41.95133 21.62647 777 ft 20 kts 255°
2026-04-28 13:07 41.95064 21.62529 778 ft 18 kts 178°
2026-04-28 13:07 41.94938 21.62568 777 ft 20 kts 165°
2026-04-28 13:08 41.94811 21.62646 776 ft 20 kts 136°
2026-04-28 13:08 41.94692 21.62719 774 ft 13 kts 199°
2026-04-28 13:08 41.94696 21.62653 775 ft 8 kts 327°
2026-04-28 13:08 41.94811 21.62615 776 ft 43 kts 349°
2026-04-28 13:09 41.95337 21.62431 778 ft 112 kts 347°
2026-04-28 13:09 41.96308 21.62114 791 ft 172 kts 348°
2026-04-28 13:09 41.97549 21.61671 1387 ft 186 kts 343°
2026-04-28 13:09 41.98754 21.61162 2517 ft 183 kts 343°
2026-04-28 13:10 42.00085 21.60697 3121 ft 209 kts 354°
2026-04-28 13:10 42.01553 21.60933 3866 ft 219 kts 22°
2026-04-28 13:10 42.02794 21.62161 4394 ft 231 kts 52°
2026-04-28 13:10 42.03540 21.64143 4918 ft 250 kts 76°
2026-04-28 13:11 42.03598 21.66539 5548 ft 263 kts 95°
2026-04-28 13:11 42.03383 21.68980 6357 ft 268 kts 95°
2026-04-28 13:11 42.03187 21.71491 7164 ft 271 kts 94°
2026-04-28 13:11 42.03043 21.74035 7894 ft 276 kts 89°
2026-04-28 13:12 42.03448 21.76600 8392 ft 285 kts 61°
2026-04-28 13:12 42.04494 21.78879 9119 ft 289 kts 54°
2026-04-28 13:12 42.05595 21.81159 9881 ft 292 kts 55°
2026-04-28 13:12 42.06711 21.83498 10349 ft 306 kts 55°
2026-04-28 13:13 42.07903 21.85965 10774 ft 319 kts 54°
2026-04-28 13:13 42.09127 21.88497 11440 ft 324 kts 54°
2026-04-28 13:13 42.10449 21.90960 12215 ft 325 kts 47°
2026-04-28 13:13 42.11938 21.93268 13009 ft 328 kts 46°
2026-04-28 13:14 42.13424 21.95620 13817 ft 332 kts 47°
2026-04-28 13:14 42.14885 21.97995 14539 ft 335 kts 47°
2026-04-28 13:14 42.16385 22.00437 15291 ft 339 kts 47°
2026-04-28 13:14 42.17889 22.02907 16002 ft 344 kts 48°
2026-04-28 13:15 42.19415 22.05420 16693 ft 348 kts 47°
2026-04-28 13:15 42.20956 22.07965 17412 ft 352 kts 48°
2026-04-28 13:15 42.22511 22.10536 18108 ft 356 kts 48°
2026-04-28 13:15 42.24085 22.13139 18755 ft 359 kts 48°
2026-04-28 13:16 42.25674 22.15766 19339 ft 363 kts 47°
2026-04-28 13:16 42.27277 22.18426 19928 ft 368 kts 47°
2026-04-28 13:16 42.29002 22.21047 20118 ft 379 kts 38°
2026-04-28 13:16 42.31219 22.22965 20105 ft 380 kts 19°
2026-04-28 13:17 42.33773 22.23780 20142 ft 377 kts
2026-04-28 13:17 42.36337 22.23483 20163 ft 375 kts 343°
2026-04-28 13:17 42.38833 22.22450 20084 ft 377 kts 340°
2026-04-28 13:17 42.41324 22.21325 20004 ft 374 kts 340°
2026-04-28 13:18 42.43809 22.20244 20007 ft 376 kts 340°
2026-04-28 13:18 42.46302 22.19160 20010 ft 376 kts 340°
2026-04-28 13:18 42.48792 22.18077 20004 ft 376 kts 340°
2026-04-28 13:18 42.51286 22.16990 20009 ft 376 kts 340°
2026-04-28 13:19 42.53773 22.15904 20001 ft 377 kts 340°
2026-04-28 13:19 42.56263 22.14817 20015 ft 376 kts 340°
2026-04-28 13:19 42.58756 22.13728 20009 ft 376 kts 340°
2026-04-28 13:19 42.61243 22.12640 20009 ft 376 kts 340°
2026-04-28 13:20 42.63734 22.11554 20008 ft 376 kts 340°
2026-04-28 13:20 42.66219 22.10461 20017 ft 375 kts 340°
2026-04-28 13:20 42.68710 22.09368 20016 ft 375 kts 340°
2026-04-28 13:20 42.71195 22.08276 20011 ft 375 kts 340°
2026-04-28 13:21 42.73534 22.06849 20027 ft 373 kts 329°
2026-04-28 13:21 42.75774 22.05061 20004 ft 373 kts 327°
2026-04-28 13:21 42.78005 22.03250 20003 ft 373 kts 328°
2026-04-28 13:21 42.80240 22.01446 20011 ft 373 kts 328°
2026-04-28 13:22 42.82469 21.99641 20016 ft 373 kts 328°
2026-04-28 13:22 42.84703 21.97837 20013 ft 372 kts 328°
2026-04-28 13:22 42.86927 21.96033 20013 ft 371 kts 328°
2026-04-28 13:22 42.89154 21.94231 20016 ft 371 kts 328°
2026-04-28 13:23 42.91376 21.92432 20014 ft 371 kts 328°
2026-04-28 13:23 42.93602 21.90627 20014 ft 371 kts 328°
2026-04-28 13:23 42.95823 21.88824 20016 ft 371 kts 328°
2026-04-28 13:23 42.98042 21.87020 20014 ft 372 kts 328°
2026-04-28 13:24 43.00261 21.85215 20014 ft 371 kts 328°
2026-04-28 13:24 43.02481 21.83410 20015 ft 371 kts 328°
2026-04-28 13:24 43.04703 21.81600 20021 ft 371 kts 328°
2026-04-28 13:24 43.06924 21.79790 20039 ft 371 kts 328°
2026-04-28 13:25 43.09108 21.78008 20026 ft 369 kts 328°
2026-04-28 13:25 43.11316 21.76204 20024 ft 369 kts 328°
2026-04-28 13:25 43.13525 21.74399 20029 ft 369 kts 328°
2026-04-28 13:25 43.15731 21.72594 20026 ft 369 kts 328°
2026-04-28 13:26 43.17939 21.70787 20028 ft 369 kts 327°
2026-04-28 13:26 43.20144 21.68979 20029 ft 369 kts 328°
2026-04-28 13:26 43.22350 21.67172 20028 ft 369 kts 327°
2026-04-28 13:26 43.24556 21.65361 20027 ft 369 kts 327°
2026-04-28 13:27 43.26757 21.63553 20026 ft 369 kts 328°
2026-04-28 13:27 43.28962 21.61740 20026 ft 369 kts 328°
2026-04-28 13:27 43.30424 21.60538 20033 ft 370 kts 327°
2026-04-28 13:27 43.32625 21.58726 20030 ft 369 kts 327°
2026-04-28 13:28 43.34824 21.56913 20028 ft 369 kts 327°
2026-04-28 13:28 43.37025 21.55096 20027 ft 369 kts 327°
2026-04-28 13:28 43.39228 21.53278 20027 ft 369 kts 327°
2026-04-28 13:28 43.41425 21.51463 20029 ft 369 kts 327°
2026-04-28 13:29 43.43628 21.49641 20028 ft 369 kts 327°
2026-04-28 13:29 43.45826 21.47822 20031 ft 368 kts 327°
2026-04-28 13:29 43.48013 21.46013 20031 ft 366 kts 327°
2026-04-28 13:29 43.50194 21.44206 20031 ft 366 kts 327°
2026-04-28 13:30 43.52382 21.42391 20034 ft 366 kts 327°
2026-04-28 13:30 43.54564 21.40577 20027 ft 366 kts 327°
2026-04-28 13:30 43.56742 21.38767 20032 ft 365 kts 327°
2026-04-28 13:30 43.58890 21.36981 20031 ft 366 kts 327°
2026-04-28 13:31 43.63250 21.33351 20030 ft 366 kts 327°
2026-04-28 13:31 43.65432 21.31530 20030 ft 366 kts 327°
2026-04-28 13:31 43.67611 21.29710 20103 ft 366 kts 327°
2026-04-28 13:32 43.69790 21.27889 20078 ft 365 kts 327°
2026-04-28 13:32 43.71971 21.26066 20079 ft 367 kts 327°
2026-04-28 13:32 43.74151 21.24241 20076 ft 367 kts 327°
2026-04-28 13:32 43.76335 21.22412 20097 ft 366 kts 327°
2026-04-28 13:33 43.78514 21.20587 20083 ft 365 kts 327°
2026-04-28 13:33 43.80688 21.18764 20080 ft 365 kts 327°
2026-04-28 13:33 43.82861 21.16941 20079 ft 365 kts 327°
2026-04-28 13:33 43.85031 21.15118 20080 ft 365 kts 327°
2026-04-28 13:34 43.87205 21.13290 20081 ft 365 kts 327°
2026-04-28 13:34 43.89377 21.11461 20082 ft 365 kts 326°
2026-04-28 13:34 43.91522 21.09653 20083 ft 365 kts 327°
2026-04-28 13:34 43.93695 21.07821 20076 ft 366 kts 326°
2026-04-28 13:35 43.95867 21.05985 20086 ft 366 kts 326°
2026-04-28 13:35 43.98047 21.04145 20086 ft 366 kts 327°
2026-04-28 13:35 44.00222 21.02307 20097 ft 366 kts 326°
2026-04-28 13:35 44.02367 21.00494 20088 ft 352 kts 326°
2026-04-28 13:36 44.04423 20.98762 20073 ft 340 kts 326°
2026-04-28 13:36 44.06421 20.97081 20087 ft 334 kts 326°
2026-04-28 13:36 44.08412 20.95419 20090 ft 333 kts 326°
2026-04-28 13:36 44.10390 20.93752 20081 ft 331 kts 326°
2026-04-28 13:37 44.12317 20.92130 19940 ft 318 kts 326°
2026-04-28 13:37 44.14179 20.90554 19676 ft 309 kts 326°
2026-04-28 13:37 44.16012 20.89059 19357 ft 304 kts 331°
2026-04-28 13:37 44.17988 20.88036 18980 ft 302 kts 338°
2026-04-28 13:38 44.19981 20.87154 18587 ft 299 kts 338°
2026-04-28 13:38 44.21936 20.86282 18140 ft 297 kts 339°
2026-04-28 13:38 44.23903 20.85410 17681 ft 296 kts 339°
2026-04-28 13:38 44.25867 20.84538 17177 ft 296 kts 339°
2026-04-28 13:39 44.27839 20.83662 16639 ft 297 kts 339°
2026-04-28 13:39 44.29812 20.82783 16081 ft 299 kts 339°
2026-04-28 13:39 44.31805 20.81898 15499 ft 302 kts 339°
2026-04-28 13:39 44.33819 20.80999 14889 ft 305 kts 339°
2026-04-28 13:40 44.35750 20.79771 14192 ft 307 kts 322°
2026-04-28 13:40 44.37235 20.77626 13457 ft 309 kts 301°
2026-04-28 13:40 44.38329 20.75138 13108 ft 301 kts 301°
2026-04-28 13:40 44.39461 20.72692 12682 ft 297 kts 302°
2026-04-28 13:41 44.40586 20.70291 12292 ft 292 kts 302°
2026-04-28 13:41 44.41677 20.67921 11910 ft 288 kts 302°
2026-04-28 13:41 44.42747 20.65575 11527 ft 284 kts 301°
2026-04-28 13:41 44.43803 20.63262 11155 ft 280 kts 301°
2026-04-28 13:42 44.44843 20.60968 10787 ft 277 kts 301°
2026-04-28 13:42 44.45870 20.58693 10426 ft 275 kts 301°
2026-04-28 13:42 44.46887 20.56436 10056 ft 273 kts 301°
2026-04-28 13:42 44.47892 20.54191 9695 ft 270 kts 301°
2026-04-28 13:43 44.48887 20.51976 9336 ft 268 kts 301°
2026-04-28 13:43 44.49873 20.49783 8982 ft 265 kts 301°
2026-04-28 13:43 44.50880 20.47636 8616 ft 263 kts 309°
2026-04-28 13:43 44.52384 20.46226 8212 ft 265 kts 342°
2026-04-28 13:44 44.54208 20.46273 7916 ft 268 kts 16°
2026-04-28 13:44 44.55804 20.47559 7630 ft 268 kts 31°
2026-04-28 13:44 44.57369 20.48966 7343 ft 264 kts 27°
2026-04-28 13:44 44.58839 20.50435 7180 ft 259 kts 45°
2026-04-28 13:45 44.59611 20.52668 7164 ft 259 kts 80°
2026-04-28 13:45 44.59403 20.55178 7186 ft 265 kts 113°
2026-04-28 13:45 44.58461 20.57414 7236 ft 269 kts 125°
2026-04-28 13:45 44.57373 20.59580 7111 ft 275 kts 125°
2026-04-28 13:46 44.56299 20.61774 7091 ft 269 kts 124°
2026-04-28 13:46 44.55271 20.63947 7124 ft 267 kts 123°
2026-04-28 13:46 44.54264 20.66148 7139 ft 269 kts 122°
2026-04-28 13:46 44.53263 20.68378 7147 ft 271 kts 122°
2026-04-28 13:47 44.52258 20.70619 7144 ft 272 kts 122°
2026-04-28 13:47 44.51361 20.72900 7132 ft 270 kts 107°
2026-04-28 13:47 44.51274 20.75475 7128 ft 266 kts 71°
2026-04-28 13:47 44.52220 20.77646 7160 ft 257 kts 36°
2026-04-28 13:48 44.53689 20.78978 7224 ft 254 kts 26°
2026-04-28 13:48 44.55231 20.80206 7262 ft 254 kts 26°
2026-04-28 13:48 44.56731 20.81386 7248 ft 239 kts 18°
2026-04-28 13:48 44.58306 20.81609 7058 ft 224 kts 342°
2026-04-28 13:49 44.59601 20.80534 6843 ft 215 kts 312°
2026-04-28 13:49 44.60514 20.78825 6332 ft 228 kts 304°
2026-04-28 13:49 44.61382 20.76944 6034 ft 231 kts 302°
2026-04-28 13:49 44.62212 20.74993 5745 ft 234 kts 302°
2026-04-28 13:50 44.63074 20.73051 5431 ft 234 kts 303°
2026-04-28 13:50 44.63955 20.71119 5121 ft 236 kts 303°
2026-04-28 13:50 44.64827 20.69157 4799 ft 237 kts 303°
2026-04-28 13:50 44.65706 20.67186 4464 ft 239 kts 303°
2026-04-28 13:51 44.66594 20.65200 4124 ft 241 kts 304°
2026-04-28 13:51 44.67490 20.63211 3804 ft 242 kts 305°
2026-04-28 13:51 44.68389 20.61207 3464 ft 243 kts 305°
2026-04-28 13:51 44.69293 20.59186 3119 ft 244 kts 304°
2026-04-28 13:52 44.70166 20.57222 3104 ft 230 kts 304°
2026-04-28 13:52 44.70994 20.55370 3118 ft 218 kts 305°
2026-04-28 13:52 44.71787 20.53586 3133 ft 213 kts 304°
2026-04-28 13:52 44.72556 20.51841 3184 ft 204 kts 305°
2026-04-28 13:53 44.73283 20.50216 3116 ft 190 kts 307°
2026-04-28 13:53 44.73970 20.48675 3054 ft 184 kts 307°
2026-04-28 13:53 44.74662 20.47135 2771 ft 182 kts 306°
2026-04-28 13:53 44.75299 20.45681 2567 ft 166 kts 306°
2026-04-28 13:54 44.75881 20.44377 2333 ft 154 kts 306°
2026-04-28 13:54 44.76431 20.43146 2116 ft 143 kts 306°
2026-04-28 13:54 44.76939 20.41989 1902 ft 134 kts 305°
2026-04-28 13:54 44.77419 20.40913 1731 ft 127 kts 306°
2026-04-28 13:55 44.77895 20.39850 1604 ft 131 kts 305°
2026-04-28 13:55 44.78378 20.38750 1422 ft 132 kts 306°
2026-04-28 13:55 44.78861 20.37659 1235 ft 131 kts 307°
2026-04-28 13:55 44.79352 20.36562 1072 ft 134 kts 307°
2026-04-28 13:56 44.79841 20.35438 875 ft 134 kts 306°
2026-04-28 13:56 44.80309 20.34334 697 ft 125 kts 302°
2026-04-28 13:56 44.80763 20.33327 520 ft 123 kts 305°
2026-04-28 13:56 44.81230 20.32283 406 ft 129 kts 303°
2026-04-28 13:57 44.81682 20.31251 350 ft 118 kts 304°
2026-04-28 13:57 44.82062 20.30427 328 ft 84 kts 304°
2026-04-28 13:57 44.82311 20.29873 326 ft 50 kts 303°
2026-04-28 13:57 44.82325 20.29716 328 ft 7 kts 205°
2026-04-28 13:58 44.82277 20.29681 326 ft 9 kts 210°
2026-04-28 13:58 44.82219 20.29629 326 ft 10 kts 210°
2026-04-28 13:58 44.82154 20.29572 327 ft 11 kts 212°
2026-04-28 13:58 44.82083 20.29510 324 ft 13 kts 212°
2026-04-28 13:59 44.82006 20.29443 326 ft 14 kts 212°
2026-04-28 13:59 44.81923 20.29371 326 ft 15 kts 212°
2026-04-28 13:59 44.81868 20.29318 325 ft 5 kts 237°
2026-04-28 13:59 44.81870 20.29289 327 ft 2 kts 298°
2026-04-28 14:00 44.81879 20.29272 327 ft 3 kts 303°
2026-04-28 14:00 44.81890 20.29248 325 ft 1 kts 303°
2026-04-28 14:00 44.81894 20.29239 326 ft 0 kts 303°
2026-04-28 14:00 44.81895 20.29236 326 ft 0 kts 303°